RH
2 2 2 2 3 3 3 3 3 3 3 3 3 3 3 3 3 3 3 3 3 3 3 3 3 3 3 3 3 3 3 3 3 3 3 3 3 2 2 2 2 2 2 2 2 2 2 2 2 2 2 2 2 2 2 2 2 2 2 2 2 2 2 2 2 2 2 2 2 2 2 2 2 3 3 3 3 3 3 3 3 3 3 3 3 3 3 3 3 3 3 3 2 2 2 2 2 2 2 2 2 2 2
2 2 2 3 3 3 3 3 3 3 3 3 3 3 3 3 3 3 3 3 3 3 3 3 3 3 3 3 3 3 3 3 3 3 3 3 3 3 3 3 2 2 2 2 2 2 2 2 2 2 2 2 2 2 2 2 2 3 3 3 3 3 3 3 3 3 3 3 3 3 3 3 3 3 3 3 3 3 3 3 3 3 3 4 4 4 4 4 4 3 3 3 3 3 3 3 3 3 3 3 3 3 3
2 2 2 2 2 2 3 3 3 3 3 3 3 3 3 3 3 3 3 3 3 3 3 3 3 3 3 3 3 3 3 3 3 3 3 3 3 3 3 3 3 3 3 3 2 2 2 2 2 3 3 3 3 3 3 3 3 3 3 3 3 3 3 3 3 3 4 4 4 4 4 4 4 4 4 4 4 4 4 4 4 4 4 4 4 4 4 4 4 4 4 4 4 4 4 4 4 4 4 4 4 4 4
2 2 2 2 2 2 2 2 2 2 2 2 2 2 2 2 2 2 2 2 2 2 3 3 3 3 3 3 3 3 3 3 3 3 3 4 4 4 4 4 3 3 3 3 3 3 3 3 3 3 3 3 3 3 3 3 3 3 3 4 4 4 4 4 4 4 4 4 4 4 4 4 4 4 4 4 4 4 4 4 4 4 5 5 5 5 5 5 5 5 5 5 5 5 5 5 5 5 5 5 5 5 5
2 2 2 2 2 2 2 2 2 2 2 2 2 2 2 2 2 2 2 2 2 2 2 2 2 2 2 2 3 3 3 3 3 3 3 3 4 4 4 4 4 4 4 4 3 3 3 3 3 3 3 3 3 3 4 4 4 4 4 4 4 4 4 4 4 4 4 4 5 5 5 5 5 5 5 5 5 5 5 5 5 5 5 5 5 5 5 6 6 6 6 6 6 6 6 6 6 6 6 6 6 6 6
2 2 2 2 2 2 2 2 2 2 2 2 2 2 2 2 2 2 2 2 2 2 2 2 2 2 2 2 2 2 2 3 3 3 3 3 3 4 4 4 4 4 4 4 4 4 4 4 4 4 4 4 4 4 4 4 4 4 4 4 4 4 4 4 4 5 5 5 5 5 5 5 5 5 6 6 6 6 6 6 6 6 6 6 6 6 6 6 6 6 6 6 6 6 6 6 6 6 6 6 6 6 6
2 2 2 2 2 2 2 2 2 2 2 2 2 2 2 2 2 2 2 2 2 2 2 2 2 2 2 2 2 2 2 2 2 3 3 3 3 3 3 4 4 4 4 4 4 4 4 4 4 4 4 4 4 4 4 4 4 4 4 4 4 4 4 5 5 5 5 5 5 6 6 6 6 6 6 6 6 6 6 6 6 6 6 6 6 6 6 6 6 6 6 6 6 6 7 7 7 7 7 7 7 7 7
2 2 2 2 2 2 2 2 2 2 2 2 2 2 2 3 3 3 3 3 3 3 3 3 3 3 3 3 3 3 3 3 2 3 3 3 3 3 3 3 4 4 4 4 4 4 4 4 4 4 4 4 4 4 4 5 5 5 5 5 5 5 5 5 5 5 5 6 6 6 6 6 6 6 6 6 6 6 6 6 6 6 6 6 6 6 6 6 6 6 6 7 7 7 7 7 7 7 7 7 7 7 7
2 2 2 2 2 2 3 3 3 3 4 4 4 4 4 4 4 4 4 4 4 4 4 4 4 4 4 4 4 4 4 4 3 3 3 3 3 3 3 3 3 3 4 4 4 4 4 4 4 4 4 5 5 5 5 5 5 5 5 5 5 5 6 6 6 6 6 6 6 6 6 6 6 6 6 6 6 6 6 6 6 6 6 6 6 6 6 6 6 6 6 6 6 6 7 7 7 7 7 7 7 7 7
3 3 3 4 4 4 4 4 5 5 5 5 5 5 5 5 5 5 5 5 5 5 5 5 5 5 5 5 5 5 5 5 5 4 4 4 4 4 3 3 3 3 3 3 4 4 4 4 4 4 4 5 5 5 5 5 5 5 5 6 6 6 6 6 6 6 6 6 6 6 6 6 6 6 6 6 6 6 6 6 6 6 6 6 6 6 6 6 6 6 6 6 6 6 6 6 6 6 6 7 7 7 7
4 4 5 5 5 6 6 6 6 6 6 6 6 6 6 6 6 6 6 6 6 6 6 6 6 6 6 6 6 6 6 6 6 6 6 6 5 5 4 4 4 4 3 3 3 4 4 4 4 4 4 5 5 5 5 5 5 5 6 6 6 6 6 6 6 6 6 6 6 6 6 6 6 6 6 6 6 6 6 6 6 6 6 6 6 6 6 6 6 6 6 6 6 6 6 6 6 6 6 6 6 6 6
6 6 6 6 6 6 6 6 6 6 6 6 6 6 6 6 6 6 6 6 6 6 6 6 6 6 6 6 7 7 7 7 7 7 7 7 7 6 6 6 5 5 4 4 4 4 4 4 4 4 4 4 4 5 5 5 5 5 5 6 6 6 6 6 6 6 6 6 6 6 6 6 6 6 6 6 6 6 6 6 6 6 6 5 5 5 5 5 5 5 5 5 5 5 6 6 6 6 6 6 6 6 6
6 6 6 6 6 6 6 6 6 6 6 6 6 6 6 6 6 6 6 6 6 6 6 6 6 7 7 7 7 7 8 8 8 8 8 8 8 8 8 7 7 6 6 5 5 4 4 4 4 4 4 4 4 4 5 5 5 5 5 5 6 6 6 6 6 6 6 6 6 6 6 6 6 6 6 6 6 6 6 6 6 6 6 6 6 5 5 5 5 5 5 5 5 5 5 5 5 5 5 5 5 5 5
7 6 6 6 6 6 6 6 6 6 6 6 6 6 6 6 6 6 6 6 6 7 7 7 7 7 7 7 7 8 8 8 8 8 8 9 9 9 9 8 8 8 8 7 6 6 5 5 4 4 4 4 4 4 4 4 5 5 5 5 5 5 6 6 6 6 6 6 6 6 6 6 6 6 6 6 6 6 6 6 6 6 6 6 6 6 6 5 5 5 5 5 5 5 5 5 5 5 5 5 5 5 5
6 6 6 6 6 6 6 6 6 6 6 6 6 6 6 6 6 6 6 6 7 7 7 7 7 7 7 7 8 8 8 8 8 8 9 9 10 10 10 10 10 9 9 9 8 8 7 6 6 5 4 4 4 4 4 4 4 4 5 5 5 5 5 5 6 6 6 6 6 6 6 6 6 6 6 6 6 6 6 6 6 6 6 6 6 6 6 6 6 6 5 5 5 5 5 5 5 5 5 5 5 5 5
6 6 6 6 6 6 6 6 6 6 6 6 6 6 6 6 6 6 6 6 6 7 7 7 7 7 7 7 8 8 8 8 8 9 9 10 10 10 10 10 10 10 10 10 10 10 9 8 8 7 6 6 5 5 4 4 4 4 4 4 5 5 5 5 5 5 6 6 6 6 6 6 6 6 6 6 6 6 6 6 6 6 6 6 6 6 6 6 6 6 6 6 6 6 5 5 5 5 5 5 5 5 5
6 6 6 6 6 6 6 6 6 6 6 6 6 6 6 6 6 6 6 6 6 6 7 7 7 7 7 7 8 8 8 8 8 8 9 10 10 10 10 11 11 11 11 11 11 11 11 10 10 10 9 8 7 6 6 5 5 4 4 4 4 4 4 5 5 5 5 5 6 6 6 6 6 6 6 6 6 6 6 6 6 6 6 6 6 6 6 6 6 6 6 6 6 6 6 6 6 5 5 5 5 5 5
6 6 6 6 6 6 6 6 6 5 5 5 5 5 5 6 6 6 6 6 6 6 6 6 6 7 7 7 7 8 8 8 8 9 9 10 10 10 10 11 11 12 12 12 12 12 12 12 12 12 11 10 10 9 8 8 7 6 6 5 5 5 4 4 4 4 5 5 5 5 5 5 6 6 6 6 6 6 6 6 6 6 6 6 6 6 6 6 6 6 6 6 6 6 6 6 6 6 6 6 6 6 5
6 6 6 6 6 6 6 6 6 5 5 5 5 5 5 5 5 5 5 6 6 6 6 6 6 6 6 6 7 7 8 8 8 8 9 10 10 10 10 11 11 12 12 12 13 13 13 13 13 13 13 13 12 12 11 11 10 10 8 8 7 7 6 6 5 5 5 5 5 5 5 5 5 5 5 5 6 6 6 6 6 6 6 6 6 6 6 6 6 6 6 7 7 7 7 7 6 6 6 6 6 6 6
6 6 6 6 6 6 6 6 6 5 5 5 5 5 5 5 5 5 5 5 5 5 5 6 6 6 6 6 6 7 7 7 8 8 9 9 10 10 10 11 11 12 12 13 13 14 14 14 14 14 14 14 14 14 14 14 13 12 12 11 10 10 9 8 8 8 7 6 6 6 6 5 5 5 5 5 5 5 5 5 5 5 6 6 6 6 6 6 6 6 6 6 6 7 7 7 7 7 7 7 7 6 6
6 7 7 7 6 6 6 6 6 5 5 5 4 4 4 4 5 5 5 5 5 5 5 5 5 6 6 6 6 6 6 7 7 8 8 8 9 10 10 10 11 12 12 13 14 14 14 15 15 16 16 16 16 16 16 16 16 15 15 14 14 13 13 12 12 11 10 10 9 8 8 8 7 7 7 6 6 6 6 6 6 6 6 6 6 6 6 6 6 6 6 6 6 6 6 6 6 7 7 7 7 7 7
7 7 7 7 7 7 7 6 6 6 5 5 4 4 4 4 4 4 4 4 5 5 5 5 5 5 5 5 6 6 6 6 6 7 7 8 8 9 10 10 10 11 12 12 13 14 14 15 16 16 16 17 18 18 18 18 18 18 18 18 18 17 16 16 16 15 15 14 14 13 12 12 11 11 10 10 9 9 8 8 8 8 7 7 7 7 6 6 6 6 6 6 6 6 6 6 6 6 6 6 6 6 7
8 8 8 8 8 8 7 7 6 6 5 5 4 4 4 4 4 4 4 4 4 4 4 5 5 5 5 5 5 5 5 6 6 6 6 7 7 8 8 9 10 10 11 12 12 13 14 14 15 16 16 18 18 18 19 20 20 20 20 20 20 20 20 20 20 20 20 19 19 18 18 18 17 16 16 16 15 14 14 13 12 12 12 11 10 10 10 10 9 8 8 8 8 7 7 6 6 6 6 6 6 6 6
8 8 9 8 8 8 8 7 7 6 6 5 5 4 4 4 4 4 4 4 4 4 4 4 4 4 4 5 5 5 5 5 5 6 6 6 6 7 7 8 8 9 10 10 11 12 12 13 14 15 16 16 18 18 19 20 21 21 22 22 22 22 22 22 23 23 23 23 23 23 23 23 23 22 22 22 22 21 21 20 20 19 18 18 18 17 16 16 15 14 14 13 12 12 11 10 10 9 9 8 8 7 7
10 10 10 10 9 9 8 8 7 7 6 6 5 4 4 4 4 4 4 4 4 4 4 4 4 4 4 4 5 5 5 5 5 5 5 5 6 6 6 7 7 8 8 9 10 10 11 12 13 14 14 15 16 17 18 19 20 20 21 22 22 22 22 23 23 24 24 24 24 25 25 25 26 26 26 26 26 26 26 26 25 25 25 24 24 24 23 23 22 22 21 20 20 19 18 18 17 16 16 15 14 13 12
10 10 10 10 10 10 9 8 8 7 7 6 5 5 4 4 4 4 4 4 4 4 4 4 4 4 4 4 5 5 5 5 5 5 5 5 5 5 6 6 6 7 7 8 8 9 10 10 11 12 13 14 15 16 16 18 18 19 20 20 20 21 22 22 22 23 23 24 24 24 24 24 25 25 25 26 26 26 26 26 26 26 26 26 26 25 25 25 25 25 24 24 24 24 24 23 23 23 22 22 21 20 19
11 11 11 11 10 10 10 10 9 8 8 7 6 6 5 5 4 4 4 4 4 4 4 4 4 5 5 5 5 5 5 5 5 5 5 5 5 5 5 5 6 6 6 7 7 8 8 9 10 11 12 12 13 14 15 16 16 17 18 18 19 20 20 20 21 21 22 22 22 22 22 22 22 22 22 22 22 22 22 22 22 21 21 21 21 21 21 21 21 21 21 21 21 21 22 22 22 22 22 22 22 23 22
12 12 12 12 11 11 11 10 10 9 8 8 7 6 6 5 5 5 5 4 4 4 5 5 5 5 5 5 5 5 5 5 5 5 5 5 5 5 5 5 6 6 6 6 7 8 8 8 9 10 10 11 12 13 13 14 15 16 16 17 18 18 18 19 19 19 19 20 19 19 19 19 19 18 18 18 18 17 16 16 16 16 15 15 15 15 15 14 14 14 14 15 15 15 15 16 16 16 16 17 18 18 19
12 12 12 12 12 12 12 11 11 10 10 8 8 7 6 6 6 5 5 5 5 5 5 5 5 5 5 5 5 5 5 5 5 5 6 6 6 6 6 6 6 6 6 7 7 8 8 8 9 10 10 10 11 12 12 13 14 14 15 15 16 16 16 16 16 16 16 16 16 16 16 15 14 14 14 13 13 12 12 12 11 11 11 10 10 10 10 10 10 10 10 10 10 10 10 10 10 10 11 11 12 12 12
13 13 13 13 13 13 13 12 12 11 10 10 9 8 8 7 6 6 6 6 6 5 5 5 6 6 6 6 6 6 6 6 6 6 6 6 6 6 6 6 6 7 7 7 8 8 8 9 9 10 10 10 11 12 12 12 13 13 13 14 14 14 14 14 14 14 14 13 13 12 12 11 11 10 10 10 9 9 8 8 8 8 8 8 7 7 7 7 7 7 7 7 7 7 7 7 7 7 8 8 8 8 8
14 14 14 14 14 14 14 14 13 12 12 11 10 9 8 8 8 7 6 6 6 6 6 6 6 6 6 6 6 6 6 6 6 6 6 6 7 7 7 7 7 8 8 8 8 8 9 9 10 10 10 10 11 11 11 12 12 12 12 12 12 12 12 11 11 11 10 10 10 9 9 8 8 8 8 7 7 7 6 6 6 6 6 6 5 5 5 5 5 5 5 5 5 5 5 5 5 5 5 5 6 6 6
15 15 15 16 16 15 15 15 14 14 13 12 12 11 10 10 8 8 8 7 7 7 6 6 6 6 6 6 6 7 7 7 7 7 7 7 7 7 8 8 8 8 8 8 8 9 9 10 10 10 10 10 10 10 10 10 10 10 10 10 10 10 9 9 8 8 8 8 7 7 7 6 6 6 6 6 5 5 5 5 4 4 4 4 4 4 4 4 4 4 4 4 4 4 4 4 4 4 4 4 4 4 4
16 16 16 16 16 16 16 16 16 15 15 14 13 12 12 11 10 10 9 8 8 8 8 7 7 7 7 7 7 7 7 7 7 8 8 8 8 8 8 8 8 8 8 8 9 9 9 9 9 9 9 9 9 8 8 8 8 8 8 8 8 8 7 7 7 6 6 6 6 6 5 5 5 5 5 4 4 4 4 4 4 4 4 4 4 4 4 4 4 4 4 4 4 4 4 4 4 4 4 4 4 4 4
16 17 17 17 17 17 17 17 16 16 16 16 15 14 13 12 12 11 10 10 10 9 8 8 8 8 8 8 8 8 8 8 8 8 8 8 8 8 8 8 8 8 8 8 8 8 8 8 8 8 8 8 8 7 7 7 7 7 7 6 6 6 6 6 6 5 5 5 5 5 4 4 4 4 4 4 4 4 4 4 4 4 4 4 4 4 4 4 4 4 4 5 5 5 5 5 5 5 5 5 5 5 5
17 18 18 18 18 18 18 18 18 18 17 17 16 16 15 14 13 12 12 11 11 10 10 10 10 9 9 9 8 8 8 8 8 8 8 8 8 8 8 8 8 8 8 8 8 8 8 8 7 7 7 7 6 6 6 6 6 6 6 6 5 5 5 5 5 5 4 4 4 4 4 4 4 4 4 4 4 4 4 4 4 4 4 4 4 5 5 5 5 5 6 6 6 6 6 6 7 7 7 7 7 7 7
18 18 18 18 19 19 19 18 18 18 18 18 18 17 16 16 15 14 13 13 12 12 12 11 11 10 10 10 10 10 10 9 9 9 9 9 9 9 8 8 8 8 8 8 8 7 7 7 7 6 6 6 6 6 6 6 5 5 5 5 5 5 5 4 4 4 4 4 4 4 4 4 4 4 4 4 4 4 4 5 5 5 5 5 5 6 6 6 6 6 7 7 8 8 8 8 9 9 10 10 10 10 10
18 18 19 19 19 20 20 19 19 19 19 19 19 18 18 17 16 16 15 14 14 13 13 12 12 12 12 11 11 10 10 10 10 10 10 10 9 9 9 8 8 8 8 8 8 7 7 7 7 6 6 6 6 6 6 6 6 5 5 5 5 5 5 5 4 4 4 4 4 4 4 4 4 4 5 5 5 5 5 5 6 6 6 6 6 6 7 7 7 8 8 8 8 9 10 10 10 11 11 12 12 12 12
19 19 19 20 20 20 20 20 20 20 20 20 20 20 19 18 18 17 16 16 15 14 14 14 13 13 13 12 12 12 12 11 11 11 10 10 10 10 10 9 9 8 8 8 8 8 8 7 7 7 7 6 6 6 6 6 6 6 6 6 6 5 5 5 5 5 5 5 5 5 5 5 5 5 5 6 6 6 6 6 6 6 6 7 7 7 7 8 8 8 8 9 10 10 10 11 12 12 12 13 14 14 14
19 20 20 20 20 21 21 21 21 21 21 21 21 20 20 20 19 19 18 17 16 16 16 15 14 14 14 14 14 13 13 12 12 12 12 11 11 10 10 10 10 10 9 9 8 8 8 8 8 8 8 7 7 7 7 7 6 6 6 6 6 6 6 6 6 6 6 6 6 6 6 6 6 6 6 6 6 6 6 7 7 7 7 7 8 8 8 8 8 8 9 9 10 10 11 11 12 12 13 14 14 14 15
20 20 20 21 21 22 22 22 22 22 22 22 22 22 22 21 21 20 20 19 18 18 17 16 16 16 15 15 15 14 14 14 14 13 13 12 12 12 11 11 10 10 10 10 10 9 9 9 8 8 8 8 8 8 8 8 7 7 7 7 7 6 6 6 6 6 6 6 6 6 6 6 6 7 7 7 7 7 7 7 8 8 8 8 8 8 8 8 8 8 9 9 10 10 10 11 12 12 13 14 14 15 15
20 20 21 21 22 22 22 23 23 23 23 23 22 22 22 22 22 22 21 21 20 20 20 19 18 17 16 16 16 16 16 16 15 15 14 14 14 13 13 12 12 12 11 11 10 10 10 10 10 10 10 9 9 9 8 8 8 8 8 8 8 8 8 7 7 7 7 7 7 7 7 7 8 8 8 8 8 8 8 8 8 8 8 8 8 8 8 9 9 9 9 9 10 10 10 10 11 12 12 13 14 14 15
21 21 22 22 22 23 23 24 24 24 24 24 24 24 23 23 23 22 22 22 22 22 22 21 20 19 19 18 18 18 17 17 16 16 16 16 15 15 14 14 14 13 13 12 12 12 11 11 11 10 10 10 10 10 10 10 9 9 9 9 8 8 8 8 8 8 8 8 8 8 8 8 8 8 9 9 9 9 9 9 9 10 10 10 10 10 10 10 10 10 10 10 10 10 10 10 11 11 12 12 13 14 14
22 22 22 23 23 24 24 24 25 26 26 26 26 25 24 24 24 24 23 23 23 23 23 23 22 22 21 20 20 19 19 18 18 18 17 17 16 16 16 16 15 15 15 14 14 13 13 12 12 12 12 11 11 11 11 10 10 10 10 10 10 10 10 10 10 10 10 10 10 10 10 10 10 10 10 10 10 10 10 10 10 10 10 10 10 10 10 10 10 10 10 10 10 10 10 10 11 11 11 12 12 13 14
22 22 23 23 24 24 24 25 26 26 27 27 27 27 26 26 26 25 24 24 24 23 24 24 24 24 23 22 22 21 21 20 20 19 18 18 18 18 17 17 16 16 16 16 15 15 14 14 14 13 13 13 12 12 12 12 12 12 12 11 11 11 11 11 11 11 12 12 12 12 12 12 12 12 12 12 12 12 12 12 12 12 12 12 12 12 12 12 11 11 11 11 11 11 11 11 11 11 11 12 12 12 13
23 23 24 24 24 25 26 26 26 27 28 28 28 28 28 28 28 27 26 26 25 24 24 24 24 24 24 24 23 23 22 22 21 21 20 20 19 19 18 18 18 18 18 17 17 16 16 16 15 15 14 14 14 14 14 14 14 14 14 14 14 14 14 14 14 14 14 14 14 14 14 14 15 15 15 15 15 15 15 14 14 14 14 14 14 14 13 13 13 12 12 12 12 12 12 12 12 12 12 12 12 12 13
24 24 24 24 25 26 26 26 27 28 28 29 30 30 30 30 30 29 29 28 27 26 26 25 25 25 25 24 24 24 24 23 23 22 22 21 21 20 20 20 19 19 19 18 18 18 18 18 17 17 16 16 16 16 16 16 16 16 16 16 16 16 16 16 16 17 17 17 17 18 18 18 18 18 18 18 18 18 18 18 17 17 17 16 16 16 16 15 15 14 14 14 14 14 14 14 14 14 14 14 14 14 14
24 24 25 26 26 26 27 27 28 29 30 30 31 31 32 32 32 32 31 31 30 29 28 27 26 26 26 26 25 25 24 24 24 24 23 23 22 22 21 21 21 21 21 21 21 21 21 20 20 20 19 19 19 19 19 19 19 19 19 20 20 20 20 20 20 20 21 21 21 21 21 21 22 22 22 22 22 22 21 21 21 20 20 20 19 19 18 18 18 18 17 17 17 16 16 16 16 16 16 16 16 16 16
24 25 26 26 26 27 28 28 29 30 30 31 32 32 33 33 33 34 34 33 32 32 31 30 29 28 28 27 26 26 26 26 26 25 24 24 24 24 24 24 24 24 24 24 24 24 24 24 24 23 23 23 23 23 23 23 23 23 23 24 24 24 24 24 24 25 25 25 26 26 26 26 26 26 26 26 26 26 26 26 26 25 24 24 24 23 23 22 22 22 22 22 21 21 21 20 20 20 20 20 20 20 20
26 26 26 27 28 28 29 30 30 31 32 32 33 34 34 34 34 34 35 35 34 34 34 33 32 32 31 30 30 29 28 28 28 28 27 27 27 27 28 27 27 28 28 28 28 28 28 28 27 27 27 28 28 28 28 28 28 28 28 28 29 29 29 29 30 30 30 30 30 30 31 31 31 31 31 31 31 31 31 31 31 30 30 30 29 29 28 28 28 28 28 28 28 27 27 27 27 27 26 26 26 26 26
26 27 27 28 29 29 30 30 31 32 32 33 34 34 34 35 36 36 36 36 36 36 36 36 36 36 35 35 34 33 32 32 32 32 32 31 31 31 31 32 32 32 33 32 32 32 32 32 32 32 32 32 33 33 34 34 34 34 34 34 34 34 34 34 35 35 35 35 35 35 36 36 36 36 36 36 36 36 36 36 36 36 36 36 35 35 35 35 35 35 35 35 35 35 35 35 35 34 34 34 34 34 34
26 28 28 29 30 30 31 32 32 32 33 34 34 35 36 36 37 37 38 38 39 39 40 40 40 39 38 39 39 38 38 37 37 37 36 36 36 36 36 36 36 37 37 38 38 37 37 37 37 37 37 38 38 38 38 38 38 39 39 39 39 39 39 39 40 40 40 40 40 40 40 40 40 40 40 40 40 40 40 40 40 40 41 41 41 41 41 41 42 42 42 42 42 42 42 42 42 42 42 42 42 42 42
27 28 29 30 30 31 32 32 33 34 34 35 36 37 37 38 39 39 40 40 41 41 42 43 44 43 42 43 43 43 42 42 42 42 42 42 42 42 42 42 42 42 42 42 42 42 42 43 43 42 42 42 43 43 43 43 43 43 44 44 44 44 44 44 44 44 44 44 44 44 44 45 45 45 45 45 45 45 45 45 44 45 45 45 45 46 46 46 46 46 47 47 47 47 47 47 47 47 46 46 46 46 47
27 28 30 30 31 32 32 33 34 35 36 37 38 39 39 40 41 42 42 42 43 44 44 45 46 47 47 47 47 47 46 46 46 46 47 46 46 46 46 46 46 47 47 48 48 47 46 46 47 48 48 48 48 48 48 48 48 48 48 48 48 48 48 48 48 48 48 48 48 48 49 49 49 49 49 49 49 48 48 48 48 48 48 49 49 49 50 50 50 50 50 50 50 50 50 50 50 50 49 49 49 48 48
28 29 30 31 32 33 34 34 35 36 37 38 40 40 42 42 43 44 44 45 46 46 47 47 48 49 50 50 50 50 50 50 49 49 49 48 48 47 48 48 48 48 48 49 50 49 48 48 48 50 51 51 52 52 52 52 52 52 52 52 52 52 52 52 52 52 52 52 52 52 52 52 52 52 52 52 52 52 51 51 52 52 52 52 52 52 52 53 53 53 52 52 52 52 52 52 52 52 51 50 50 49 48
28 30 31 32 33 34 35 36 37 38 39 40 41 42 44 44 46 46 47 48 48 49 49 50 50 50 50 50 50 50 49 50 50 50 50 48 48 47 47 47 47 47 47 48 48 49 49 48 50 51 52 52 53 53 54 54 54 54 54 54 54 54 55 55 55 55 55 54 54 54 54 54 54 54 54 54 54 54 54 54 54 54 54 54 55 55 55 55 55 55 54 54 54 53 53 53 52 52 52 51 50 50 49
29 30 32 34 34 36 37 38 39 40 41 42 43 44 46 46 48 48 49 50 50 50 51 51 51 51 50 50 49 48 47 47 48 48 48 48 47 46 46 46 46 46 46 47 47 48 48 48 49 51 52 52 53 54 54 54 54 54 54 54 54 55 55 56 56 56 56 56 56 56 56 56 56 56 56 56 56 56 56 56 56 56 57 57 57 56 56 56 56 56 55 54 54 53 52 52 52 52 51 50 50 50 49
30 32 34 35 36 38 39 40 42 42 43 44 46 46 48 49 50 50 50 51 51 51 51 51 50 50 49 49 48 48 47 46 46 46 47 47 47 47 46 46 46 46 46 46 47 47 47 48 49 50 50 52 52 53 53 53 54 54 54 54 54 54 54 55 56 56 56 57 57 57 57 57 57 57 57 57 58 58 58 58 58 58 59 59 58 58 58 57 56 56 55 54 53 52 52 51 50 50 50 50 50 49 49
32 34 36 37 39 40 42 43 44 45 46 47 48 50 50 51 52 52 52 52 51 50 50 50 50 49 49 48 48 48 48 48 47 46 47 48 48 48 48 48 47 46 47 47 48 48 48 48 48 48 48 50 51 52 52 52 52 52 52 52 52 53 53 54 55 55 56 56 57 57 57 58 58 58 58 58 59 59 60 60 60 61 61 60 60 59 58 57 56 55 54 53 52 51 50 49 49 48 48 48 48 48 48
34 36 38 40 42 43 45 46 48 49 50 51 52 53 54 54 54 53 52 52 52 51 50 50 50 50 50 50 50 50 50 50 50 50 49 50 50 50 50 50 50 50 49 48 48 48 48 48 47 46 46 46 48 49 50 51 51 51 51 52 52 52 52 53 54 54 55 55 56 56 57 58 58 58 59 60 60 61 61 62 62 62 62 61 60 59 58 56 54 53 52 51 50 50 49 48 48 47 47 47 47 47 47
37 39 42 43 45 47 48 50 51 52 53 54 55 56 56 56 55 55 54 54 53 53 52 53 53 53 54 54 54 54 54 54 53 53 52 52 52 52 52 52 52 51 50 50 49 48 47 47 46 45 44 44 44 44 46 48 49 50 50 50 50 50 51 52 52 53 53 54 54 56 56 57 58 58 59 60 60 61 61 62 62 62 62 61 60 58 56 55 53 52 50 50 49 49 48 48 48 48 47 46 46 46 46
40 43 45 47 48 50 52 53 54 56 57 57 58 58 58 58 57 57 56 56 56 56 56 57 57 58 58 58 58 58 57 57 56 56 55 55 55 54 54 53 52 52 50 50 48 47 45 44 43 42 42 41 40 40 41 43 45 46 47 47 47 48 49 50 50 50 51 51 52 53 54 55 56 57 58 58 59 60 60 61 61 61 61 60 59 58 56 54 52 51 50 49 48 48 48 48 48 48 48 47 46 45 44
Wind_Speed
16 16 16 16 17 17 17 17 18 18 18 19 19 19 19 20 20 20 20 20 21 21 21 21 21 21 22 22 22 22 22 22 22 22 22 22 22 23 23 23 23 23 23 23 23 23 24 24 24 24 24 24 25 25 25 25 25 26 26 26 26 26 27 27 27 27 27 27 27 27 27 27 27 27 27 27 27 27 26 26 26 26 26 26 26 26 25 25 25 25 25 25 24 24 24 24 24 24 24 24 24 24 24
17 17 17 17 18 18 18 18 19 19 19 20 20 20 20 21 21 21 21 22 22 22 22 22 22 23 23 23 23 23 23 23 23 23 23 23 23 23 23 23 24 24 24 24 24 24 24 24 24 24 25 25 25 25 25 25 26 26 26 26 26 27 27 27 27 27 27 28 28 28 28 28 28 28 28 28 28 28 27 27 27 27 27 27 27 27 27 26 26 26 26 26 25 25 25 25 25 25 24 24 24 24 24
17 18 18 18 18 19 19 19 20 20 20 21 21 21 21 22 22 22 23 23 23 23 23 24 24 24 24 24 24 24 24 24 23 23 23 23 23 24 24 24 24 24 24 24 24 25 25 25 25 25 25 25 25 25 26 26 26 26 26 26 27 27 27 27 27 27 28 28 28 28 28 28 28 28 28 28 28 28 28 28 28 28 28 28 28 28 28 28 27 27 27 27 27 27 26 26 26 26 25 25 25 25 25
18 19 19 19 19 20 20 20 21 21 21 22 22 22 23 23 23 23 24 24 24 24 24 25 25 25 25 25 25 25 25 25 25 24 24 24 24 24 24 24 24 25 25 25 25 25 25 25 25 26 26 26 26 26 26 26 26 26 27 27 27 27 27 27 27 28 28 28 28 28 28 28 29 29 29 29 29 29 29 29 29 29 29 29 29 29 29 29 29 29 28 28 28 28 28 28 27 27 27 27 26 26 26
19 19 19 20 20 20 21 21 21 22 22 22 23 23 23 24 24 24 25 25 25 25 25 26 26 26 26 26 26 26 26 26 26 26 26 25 25 25 25 25 25 25 25 25 25 26 26 26 26 26 26 26 27 27 27 27 27 27 27 27 27 27 27 27 28 28 28 28 28 28 28 29 29 29 29 29 29 30 30 30 30 30 30 30 30 30 30 30 30 30 30 30 29 29 29 29 29 29 28 28 28 28 27
19 20 20 20 20 21 21 21 22 22 22 23 23 24 24 24 25 25 25 25 26 26 26 26 26 27 27 27 27 27 27 27 27 27 27 27 27 26 26 26 26 26 26 26 26 26 26 26 27 27 27 27 27 27 28 28 28 28 28 28 28 28 28 28 28 28 28 28 29 29 29 29 29 29 30 30 30 30 30 30 30 31 31 31 31 31 31 31 31 31 31 31 31 31 31 30 30 30 30 30 29 29 29
20 20 20 20 20 21 21 21 22 22 23 23 23 24 24 24 25 25 25 26 26 26 26 27 27 27 27 27 28 28 28 28 28 28 28 28 28 28 28 28 27 27 27 27 27 27 27 27 27 27 28 28 28 28 28 28 28 28 28 28 29 29 29 29 29 29 29 29 29 29 30 30 30 30 30 30 30 31 31 31 31 31 31 32 32 32 32 32 32 32 32 32 32 32 32 32 32 32 31 31 31 31 31
20 20 20 20 20 21 21 21 22 22 23 23 23 24 24 24 25 25 25 25 26 26 26 26 27 27 27 27 27 28 28 28 28 29 29 29 29 29 29 29 29 29 29 29 29 29 29 29 29 29 29 29 29 29 29 29 29 29 29 29 29 29 29 29 30 30 30 30 30 30 30 30 31 31 31 31 31 31 31 32 32 32 32 32 32 33 33 33 33 33 33 33 33 33 33 33 33 33 33 33 32 32 32
20 20 20 20 20 21 21 21 22 22 23 23 23 24 24 24 25 25 25 25 26 26 26 26 26 26 27 27 27 27 28 28 28 28 29 29 29 29 30 30 30 30 30 30 30 30 30 30 30 30 30 30 30 30 30 30 30 30 30 30 30 30 30 30 30 30 31 31 31 31 31 31 31 31 32 32 32 32 32 32 32 33 33 33 33 33 33 34 34 34 34 34 34 34 34 34 34 34 34 34 34 34 33
20 20 20 20 21 21 21 22 22 22 23 23 23 24 24 24 25 25 25 25 25 26 26 26 26 26 26 26 26 27 27 27 27 28 28 28 29 29 29 30 30 30 31 31 31 31 31 31 31 31 31 31 31 31 31 31 31 31 31 31 31 31 31 31 31 31 31 32 32 32 32 32 32 32 32 32 32 33 33 33 33 33 33 34 34 34 34 34 34 34 35 35 35 35 35 35 35 35 35 35 35 35 35
20 20 21 21 21 21 22 22 22 23 23 23 24 24 24 24 25 25 25 25 25 26 26 26 26 26 26 26 26 26 26 26 27 27 27 27 28 28 29 29 30 30 31 31 31 31 32 32 32 32 32 32 32 32 32 32 32 32 32 32 32 32 32 32 32 32 32 32 32 33 33 33 33 33 33 33 33 33 33 34 34 34 34 34 34 34 34 35 35 35 35 35 35 35 35 36 36 36 36 36 36 35 35
21 21 21 21 22 22 22 22 23 23 23 23 24 24 24 24 24 25 25 25 25 25 26 26 26 26 26 26 26 26 26 26 26 26 26 26 27 27 27 28 29 29 30 30 31 31 32 32 32 33 33 33 33 33 33 33 33 33 33 33 33 33 33 33 33 33 33 33 33 33 33 34 34 34 34 34 34 34 34 34 34 34 34 35 35 35 35 35 35 35 35 36 36 36 36 36 36 36 36 36 36 36 36
22 22 22 22 22 22 23 23 23 23 23 23 24 24 24 24 24 24 24 25 25 25 25 26 26 26 26 26 26 26 26 26 26 26 26 26 26 26 27 27 28 28 29 29 30 30 31 32 32 33 33 33 33 33 34 34 34 34 34 34 34 34 34 34 34 34 34 34 34 34 34 34 35 35 35 35 35 35 35 35 35 35 35 35 35 35 35 35 36 36 36 36 36 36 36 36 36 37 37 37 37 37 37
22 22 22 22 23 23 23 23 23 23 23 23 24 24 24 24 24 24 24 24 24 25 25 25 25 26 26 26 26 26 26 26 26 26 26 26 26 26 27 27 27 27 28 28 29 29 30 31 31 32 32 33 33 34 34 34 34 35 35 35 35 35 35 35 35 35 35 35 35 35 35 35 35 35 35 35 35 35 35 36 36 36 36 36 36 36 36 36 36 36 36 36 36 37 37 37 37 37 37 37 37 37 37
22 22 22 22 22 23 23 23 23 23 23 23 24 24 24 24 24 24 24 24 24 24 25 25 25 25 25 26 26 26 26 26 26 26 26 26 26 27 27 27 27 27 27 28 28 28 29 29 30 31 31 32 33 33 34 34 35 35 35 35 35 35 36 36 36 36 36 36 36 36 36 36 36 36 36 36 36 36 36 36 37 37 37 37 37 37 37 37 37 37 37 37 37 37 37 37 37 38 38 38 38 38 38
22 22 22 22 22 23 23 23 23 23 23 24 24 24 24 24 24 24 24 24 24 24 25 25 25 25 25 26 26 26 26 26 26 27 27 27 27 27 27 27 27 27 27 27 28 28 28 28 29 29 30 31 31 32 33 34 34 35 35 35 36 36 36 36 36 37 37 37 37 37 37 37 37 37 37 37 37 37 37 37 38 37 38 38 38 38 38 38 38 38 38 38 38 38 38 38 38 38 38 39 39 39 39
22 22 22 22 22 23 23 23 23 23 23 24 24 24 24 24 24 24 24 24 24 24 24 25 25 25 25 25 26 26 26 26 27 27 27 27 27 28 28 28 28 28 28 28 28 28 28 28 28 29 29 29 30 30 31 32 33 33 34 35 35 36 36 36 37 37 37 37 37 38 38 38 38 38 38 38 38 38 38 38 39 39 39 39 39 39 39 39 39 39 39 39 39 39 39 39 39 39 39 39 40 40 40
21 22 22 22 22 23 23 23 23 23 23 24 24 24 24 24 24 24 24 24 24 24 24 25 25 25 25 25 26 26 26 26 27 27 27 28 28 28 28 28 28 28 28 28 28 28 28 28 28 28 29 29 29 29 30 31 31 32 32 33 34 34 35 35 36 36 37 37 37 38 38 38 38 38 39 39 39 39 39 39 39 39 40 40 40 40 40 40 40 40 40 40 40 40 40 40 40 40 40 40 41 41 41
21 22 22 22 23 23 23 23 23 23 23 24 24 24 24 24 24 24 24 24 24 24 25 25 25 25 25 25 26 26 26 26 27 27 28 28 28 28 29 29 29 29 29 29 29 29 29 29 29 29 29 29 29 29 29 30 30 31 31 32 32 33 33 34 34 35 35 36 36 37 37 37 38 38 38 39 39 39 39 40 40 40 40 40 40 40 41 41 41 41 41 41 41 41 41 41 41 41 41 41 42 42 42
21 22 22 22 23 23 23 23 23 23 23 24 24 24 24 24 24 24 24 24 24 25 25 25 25 25 25 25 26 26 26 26 27 27 28 28 28 29 29 29 29 29 29 30 30 30 30 30 29 29 29 29 29 29 30 30 30 30 31 31 31 32 32 32 33 33 34 34 35 35 36 36 37 37 38 38 38 39 39 39 39 40 40 40 40 41 41 41 41 41 41 42 42 42 42 42 42 42 42 43 43 43 43
22 22 22 22 23 23 23 23 23 23 24 24 24 24 24 24 24 24 24 24 24 25 25 25 25 25 25 26 26 26 26 27 27 27 28 28 29 29 29 30 30 30 30 30 30 30 30 30 30 30 30 30 30 30 30 30 30 31 31 31 31 31 32 32 32 32 33 33 33 34 34 35 35 36 36 37 37 37 38 38 38 39 39 39 39 40 40 40 41 41 41 42 42 42 42 43 43 43 43 43 44 44 44
22 22 22 23 23 23 23 23 23 23 24 24 24 24 24 24 24 24 24 24 24 25 25 25 25 25 25 26 26 26 26 27 27 27 28 28 28 29 29 30 30 30 31 31 31 31 31 31 31 31 31 31 31 30 30 31 31 31 31 31 31 32 32 32 32 32 32 33 33 33 33 34 34 35 35 35 36 36 36 37 37 37 38 38 38 39 39 39 40 40 40 41 41 42 42 42 43 43 43 44 44 44 44
22 22 23 23 23 23 23 23 23 23 24 24 24 24 24 24 24 24 24 24 24 25 25 25 25 25 25 26 26 26 26 27 27 27 27 28 28 29 29 30 30 30 31 31 31 31 32 32 32 31 31 31 31 31 31 31 31 31 32 32 32 32 32 32 32 33 33 33 33 33 33 34 34 34 35 35 35 35 36 36 36 37 37 37 37 38 38 38 39 39 39 40 40 40 41 41 42 42 43 43 43 44 44
23 23 23 23 23 24 24 24 23 24 24 24 24 24 24 24 24 24 24 25 25 25 25 25 25 25 26 26 26 26 26 27 27 27 27 28 28 29 29 29 30 30 31 31 31 32 32 32 32 32 32 32 32 32 32 32 32 32 32 32 33 33 33 33 33 33 33 33 34 34 34 34 34 35 35 35 35 35 36 36 36 36 37 37 37 37 38 38 38 38 39 39 39 40 40 40 41 41 42 42 42 43 43
23 23 23 24 24 24 24 24 24 24 24 24 24 24 24 24 24 24 25 25 25 25 25 25 25 26 26 26 26 26 26 27 27 27 27 28 28 28 29 29 30 30 30 31 31 32 32 32 32 32 32 32 32 32 32 33 33 33 33 33 33 34 34 34 34 34 34 34 34 34 35 35 35 35 35 35 36 36 36 36 36 37 37 37 37 37 38 38 38 38 39 39 39 39 40 40 40 41 41 41 42 42 42
23 23 24 24 24 24 24 24 24 24 24 24 24 24 24 24 24 25 25 25 25 25 25 26 26 26 26 26 26 26 27 27 27 27 27 27 28 28 28 29 29 29 30 30 31 31 31 32 32 32 32 33 33 33 33 33 33 34 34 34 34 34 34 34 34 34 34 34 34 35 35 35 35 35 35 35 36 36 36 36 37 37 37 37 37 38 38 38 38 38 39 39 39 39 40 40 40 40 41 41 41 42 42
24 24 24 24 24 25 25 25 25 25 25 25 25 25 25 25 25 25 25 25 25 25 26 26 26 26 26 26 27 27 27 27 27 27 27 27 28 28 28 28 28 29 29 30 30 30 31 31 31 32 32 32 33 33 33 33 34 34 34 34 34 34 34 34 34 34 34 34 35 35 35 35 35 35 35 35 35 36 36 36 36 36 37 37 37 37 38 38 38 38 39 39 39 39 39 40 40 40 41 41 41 41 42
24 24 24 25 25 25 25 25 25 25 25 25 25 25 25 25 25 25 25 25 26 26 26 26 26 27 27 27 27 27 27 27 27 27 27 28 28 28 28 28 28 28 29 29 29 30 30 30 31 31 32 32 32 33 33 33 34 34 34 34 34 34 34 34 34 34 34 34 34 34 34 34 34 35 35 35 35 35 35 35 36 36 36 36 37 37 37 37 38 38 38 39 39 39 39 40 40 40 40 41 41 41 42
24 25 25 25 25 25 25 25 25 25 25 25 25 25 25 25 25 25 26 26 26 26 26 27 27 27 27 27 27 27 27 28 28 28 28 28 28 28 28 28 28 28 29 29 29 29 30 30 30 31 31 31 32 32 32 33 33 33 33 34 34 34 34 34 34 34 34 34 34 34 34 34 34 34 34 34 34 34 35 35 35 35 35 36 36 36 37 37 37 38 38 38 39 39 39 39 40 40 40 41 41 41 42
25 25 25 25 26 26 26 26 26 26 26 26 26 26 26 26 26 26 26 26 27 27 27 27 27 27 28 28 28 28 28 28 28 28 28 28 28 28 28 28 29 29 29 29 29 29 30 30 30 30 31 31 31 32 32 32 32 33 33 33 33 33 33 33 33 33 33 33 33 33 33 33 33 33 34 34 34 34 34 34 35 35 35 35 36 36 37 37 37 38 38 38 39 39 39 40 40 40 41 41 41 42 42
25 25 26 26 26 26 26 26 26 26 26 26 26 26 26 26 26 26 26 27 27 27 27 28 28 28 28 28 28 28 28 28 28 28 28 29 29 29 29 29 29 29 29 29 29 30 30 30 30 30 31 31 31 31 31 32 32 32 32 32 32 32 32 32 33 33 33 33 33 33 33 33 33 33 33 34 34 34 34 34 35 35 35 36 36 36 37 37 38 38 38 39 39 40 40 40 41 41 41 42 42 42 42
26 26 26 26 26 26 26 26 26 26 26 26 26 26 26 26 26 26 27 27 27 27 28 28 28 28 28 28 29 29 29 29 29 29 29 29 29 29 29 29 29 29 30 30 30 30 30 30 30 30 31 31 31 31 31 31 32 32 32 32 32 32 32 32 32 33 33 33 33 33 33 33 33 33 34 34 34 34 35 35 35 36 36 36 37 37 38 38 38 39 39 40 40 40 41 41 42 42 42 43 43 43 43
27 27 27 26 26 26 27 27 27 27 27 27 27 26 26 27 27 27 27 27 27 28 28 28 28 28 29 29 29 29 29 29 29 29 29 29 29 29 30 30 30 30 30 30 30 30 30 31 31 31 31 31 31 31 32 32 32 32 32 32 32 32 32 32 33 33 33 33 33 34 34 34 34 34 35 35 35 36 36 36 37 37 38 38 38 39 39 39 40 40 40 41 41 42 42 42 43 43 43 44 44 44 44
27 27 27 27 27 27 27 27 27 27 27 27 27 27 27 27 27 27 27 27 27 28 28 28 28 29 29 29 29 29 29 29 29 29 29 29 30 30 30 30 30 30 30 31 31 31 31 31 31 31 32 32 32 32 32 32 32 32 32 32 33 33 33 33 33 34 34 34 34 35 35 35 35 36 36 36 37 37 38 38 38 39 39 40 40 40 41 41 41 42 42 42 42 43 43 43 44 44 44 44 45 45 45
28 28 28 28 28 28 27 27 27 27 27 27 27 27 27 27 27 27 27 27 27 28 28 28 28 29 29 29 29 29 30 30 30 30 30 30 30 30 30 30 31 31 31 31 31 31 32 32 32 32 32 33 33 33 33 33 33 33 33 33 34 34 34 34 34 35 35 35 36 36 36 37 37 37 38 38 39 39 39 40 40 41 41 41 42 42 42 42 43 43 43 43 44 44 44 44 44 45 45 45 45 46 46
29 29 29 29 28 28 28 28 28 28 28 28 28 28 27 27 27 27 27 27 28 28 28 28 28 29 29 29 29 29 30 30 30 30 30 30 30 30 31 31 31 31 32 32 32 32 32 33 33 33 33 34 34 34 34 34 34 34 34 35 35 35 35 36 36 36 37 37 37 38 38 38 39 39 40 40 41 41 41 41 42 42 42 43 43 43 43 43 44 44 44 44 44 44 45 45 45 45 45 46 46 46 46
30 30 30 29 29 29 29 29 28 28 28 28 28 28 28 28 28 28 28 28 28 28 28 28 29 29 29 29 29 30 30 30 30 30 30 31 31 31 31 31 32 32 32 32 33 33 33 33 34 34 34 35 35 35 35 35 35 35 36 36 36 36 37 37 37 38 38 39 39 39 40 40 41 41 41 42 42 42 43 43 43 43 44 44 44 44 44 44 44 45 45 45 45 45 45 45 46 46 46 46 46 46 46
31 31 30 30 30 30 29 29 29 29 29 29 29 29 28 28 28 28 28 28 28 28 28 29 29 29 29 29 30 30 30 30 30 31 31 31 31 31 32 32 32 33 33 33 33 34 34 34 35 35 35 36 36 36 36 36 36 37 37 37 38 38 38 38 39 39 40 40 41 41 41 42 42 43 43 43 44 44 44 44 45 45 45 45 45 45 45 45 45 46 46 46 46 46 46 46 46 46 46 46 46 46 47
31 31 31 31 30 30 30 30 30 30 29 29 29 29 29 29 29 29 29 29 29 29 29 29 29 29 30 30 30 30 30 31 31 31 31 32 32 32 32 33 33 33 33 34 34 34 35 35 35 36 36 37 37 37 37 37 38 38 38 39 39 39 40 40 40 41 41 42 42 43 43 43 44 44 44 45 45 45 45 46 46 46 46 46 46 46 47 47 47 47 47 47 47 47 47 47 47 47 47 47 47 47 47
32 32 32 31 31 31 31 30 30 30 30 30 30 30 30 30 29 29 29 29 29 29 29 30 30 30 30 30 31 31 31 31 31 32 32 32 32 33 33 33 33 34 34 34 35 35 35 36 36 37 37 38 38 38 38 39 39 39 39 40 40 41 41 42 42 42 43 43 44 44 45 45 45 46 46 46 46 46 47 47 47 47 47 47 47 48 48 48 48 48 48 48 48 48 48 48 48 48 48 48 48 48 48
33 32 32 32 32 31 31 31 31 31 31 31 30 30 30 30 30 30 30 30 30 30 30 30 30 31 31 31 31 31 32 32 32 32 32 33 33 33 33 34 34 34 35 35 35 36 36 37 37 37 38 38 39 39 39 40 40 40 41 41 42 42 43 43 43 44 44 45 45 45 46 46 47 47 47 47 47 48 48 48 48 48 48 48 49 49 49 49 49 49 49 49 49 49 49 49 49 49 49 49 49 49 49
33 33 33 33 32 32 32 32 32 31 31 31 31 31 31 31 30 30 30 30 30 30 30 30 31 31 31 32 32 32 32 32 32 33 33 33 33 34 34 34 35 35 35 36 36 36 37 37 38 38 39 39 39 40 40 40 41 41 42 42 43 43 44 44 45 45 46 46 46 47 47 47 48 48 48 48 49 49 49 49 49 49 50 50 50 50 50 50 50 50 50 50 50 50 50 50 50 50 50 50 50 50 50
34 34 33 33 33 33 33 32 32 32 32 32 32 32 31 31 31 31 31 31 31 31 31 31 31 31 32 32 32 32 33 33 33 33 34 34 34 34 35 35 35 36 36 36 37 37 38 38 39 39 40 40 40 41 41 42 42 42 43 43 44 44 45 45 46 46 47 47 47 48 48 48 49 49 49 49 50 50 50 50 50 51 51 51 51 51 51 51 51 51 51 51 51 51 51 51 51 51 51 52 52 52 52
34 34 34 34 34 33 33 33 33 33 33 33 32 32 32 32 32 31 31 31 31 32 32 32 32 32 32 33 33 33 33 34 34 34 34 35 35 35 36 36 36 37 37 37 38 38 38 39 39 40 40 41 41 42 42 43 43 44 44 45 45 46 46 46 47 47 48 48 49 49 49 49 50 50 50 50 50 51 51 51 51 51 52 52 52 52 52 52 52 52 52 53 53 53 53 53 53 53 53 53 53 53 53
35 35 35 34 34 34 34 34 34 34 33 33 33 33 33 33 33 32 32 32 32 32 32 32 32 33 33 33 34 34 34 34 34 35 35 35 36 36 36 37 37 37 38 38 38 39 39 40 40 41 41 42 42 43 43 44 45 45 45 46 46 47 47 48 48 48 49 49 50 50 50 50 50 51 51 51 51 51 51 52 52 52 52 52 52 52 53 53 53 53 53 53 54 54 54 54 54 54 54 54 54 54 54
35 35 35 35 35 35 35 34 34 34 34 34 34 34 34 34 33 33 33 33 33 33 33 33 33 34 34 34 34 35 35 35 35 35 36 36 36 37 37 38 38 38 39 39 39 40 40 40 41 41 42 43 43 44 44 45 46 46 47 47 47 48 48 49 49 50 50 50 51 51 51 51 51 52 52 52 52 52 52 52 52 52 53 53 53 53 53 53 53 53 54 54 54 54 55 55 55 55 55 55 55 55 55
35 35 35 35 35 35 35 35 35 35 35 35 35 35 35 34 34 34 34 34 34 34 34 34 34 34 35 35 35 36 36 36 36 36 37 37 37 37 38 38 39 39 40 40 41 41 41 41 42 42 43 43 44 45 45 46 46 47 47 48 48 49 49 50 50 51 51 51 52 52 52 52 52 53 53 53 53 53 53 53 53 53 53 53 53 54 54 54 54 54 54 55 55 55 55 55 56 56 56 56 57 57 57
36 35 35 36 35 35 35 35 35 35 35 35 35 35 35 35 35 35 35 35 35 35 35 35 35 35 36 36 36 37 37 37 37 37 37 38 38 38 39 39 40 40 40 41 42 42 42 43 43 43 44 44 45 45 46 47 47 48 48 49 49 50 50 51 51 51 52 52 53 53 53 53 53 54 54 54 54 54 54 54 54 54 54 54 54 54 55 55 55 55 55 55 56 56 56 56 56 57 57 57 57 58 58
36 36 36 36 36 36 36 36 36 36 36 36 36 36 36 36 36 36 36 36 36 36 36 36 36 36 36 37 37 37 38 38 38 38 38 39 39 39 40 40 41 41 41 42 42 43 43 44 44 44 45 45 46 46 47 47 48 48 49 49 50 50 51 51 52 52 53 53 53 54 54 54 54 54 55 55 55 55 55 55 55 55 55 55 55 55 56 56 56 56 56 56 57 57 57 57 57 58 58 58 58 58 58
36 36 36 36 36 36 36 36 36 36 36 37 37 37 37 37 36 36 36 36 36 36 36 37 37 37 37 37 38 38 38 38 39 39 39 39 39 40 40 40 41 42 42 43 43 43 44 44 45 45 46 47 47 48 48 48 49 49 50 50 51 51 51 52 52 53 53 54 54 54 55 55 55 55 55 56 56 56 56 56 56 56 56 56 56 56 56 56 57 57 57 57 57 58 58 58 58 58 58 59 59 59 59
37 37 37 37 36 36 36 37 37 37 37 37 37 37 37 37 37 37 37 37 37 37 37 37 37 38 38 38 38 38 39 39 39 40 40 40 40 40 40 41 41 42 43 44 44 44 44 45 45 46 47 47 48 48 49 49 50 50 51 51 51 52 52 53 53 53 54 54 55 55 55 55 56 56 56 56 57 57 57 57 57 57 57 57 57 57 57 57 57 57 58 58 58 58 58 58 58 58 59 59 59 59 59
37 37 37 37 37 37 37 37 37 38 38 38 38 38 38 38 37 37 37 37 37 37 37 37 38 38 38 38 39 39 39 40 40 41 41 41 41 41 41 41 42 42 43 44 45 45 45 45 46 46 47 48 48 49 49 50 50 51 51 52 52 53 53 53 54 54 54 55 55 55 55 56 56 56 57 57 57 57 58 58 58 58 58 58 58 58 58 58 58 58 58 58 58 58 58 58 59 58 58 58 58 58 58
37 37 37 37 37 37 37 38 38 38 38 38 38 38 38 38 38 38 38 38 38 38 38 38 38 38 39 39 39 40 40 40 41 42 42 42 42 42 43 42 43 43 43 43 45 46 46 46 46 47 47 48 48 49 49 50 50 51 51 52 52 53 53 54 54 55 55 55 55 55 56 56 56 56 56 57 57 58 58 58 59 59 59 59 59 60 60 60 60 60 59 59 59 59 59 59 59 59 59 59 58 58 58
38 37 37 37 37 38 38 38 38 38 38 38 38 38 38 38 38 38 38 38 38 38 39 39 39 39 40 40 40 40 40 41 41 42 43 43 43 44 44 44 44 44 45 45 45 46 47 47 47 47 48 48 48 49 49 50 50 51 51 51 52 53 53 54 54 54 55 55 55 56 56 56 56 56 57 57 57 57 58 58 59 59 59 60 60 60 60 61 61 61 61 61 60 60 60 60 60 60 60 60 59 59 59
38 38 38 37 37 38 38 38 38 38 38 38 38 38 38 38 38 38 38 38 39 39 39 40 40 40 40 41 41 41 41 42 42 42 43 44 44 45 45 45 45 46 46 46 46 47 47 47 47 48 48 48 49 49 50 50 50 51 51 51 52 52 53 53 53 54 54 55 55 55 56 56 56 56 57 57 57 57 58 58 59 59 59 60 60 60 61 61 61 61 62 62 62 61 61 61 61 61 61 61 61 61 60
38 38 38 38 37 38 38 38 38 38 38 38 38 38 38 38 38 38 38 39 39 39 40 40 41 41 41 42 42 43 43 43 43 43 44 45 45 46 46 47 47 47 47 47 47 48 48 48 48 48 48 49 49 50 50 50 51 51 52 52 52 52 52 53 53 54 54 54 55 55 55 56 56 56 57 57 57 57 58 58 59 59 60 60 60 61 61 61 61 61 62 62 62 62 62 62 62 62 62 62 62 62 62
38 38 37 37 37 38 38 38 38 38 38 38 38 38 38 38 38 39 39 39 40 40 41 41 42 42 43 43 44 44 44 44 44 44 45 45 46 46 47 47 48 48 48 48 48 48 49 49 48 48 49 49 49 50 50 51 51 51 52 52 52 52 53 53 53 53 54 54 54 55 55 55 56 56 56 57 57 57 58 58 59 59 60 60 61 61 61 61 61 62 62 62 62 62 62 63 63 63 63 63 62 62 62
37 37 37 37 37 37 37 37 37 38 38 38 38 38 38 38 39 39 40 40 41 42 42 43 44 44 45 45 45 45 45 46 46 46 46 46 46 47 47 48 48 49 49 49 49 49 49 49 49 49 49 49 49 50 50 51 51 52 52 52 52 53 53 53 53 53 54 54 54 54 55 55 55 56 56 57 57 57 58 58 59 59 60 60 61 61 61 61 62 62 62 62 62 62 62 62 62 62 62 62 62 62 62
37 37 37 37 38 37 37 37 38 38 38 38 38 39 39 39 40 40 41 42 43 43 44 45 45 46 47 47 47 47 47 47 47 47 47 47 47 47 47 48 48 49 49 50 50 50 50 50 50 50 50 49 49 50 50 51 51 52 52 52 53 53 53 53 54 54 54 54 54 54 55 55 55 56 56 57 57 57 58 58 59 59 60 60 60 61 61 61 61 61 62 61 62 62 62 62 62 62 62 62 61 61 61
37 38 38 38 38 38 38 38 38 38 39 39 39 40 40 40 41 42 43 44 44 45 46 47 47 48 48 48 48 48 48 48 48 48 48 48 48 48 48 48 48 49 49 49 50 50 50 51 51 51 51 50 50 50 50 51 51 52 52 53 53 53 53 54 54 54 54 55 55 55 55 55 56 56 56 57 57 57 58 58 58 59 59 60 60 61 61 61 61 61 61 61 61 61 61 61 61 61 61 61 60 60 60
38 38 38 38 38 38 38 38 39 39 40 40 40 41 41 42 43 43 44 45 46 47 48 48 49 49 49 49 49 49 49 49 48 48 48 48 48 49 48 48 48 49 49 49 49 50 50 50 51 51 51 51 51 51 51 51 52 52 53 53 53 53 54 54 54 54 55 55 55 55 56 56 56 56 56 57 57 57 57 58 58 58 59 59 60 60 60 61 61 61 60 60 60 60 60 60 60 60 60 60 60 60 60
Wind_Direction
284 285 285 285 285 286 286 286 286 286 287 287 287 287 287 287 287 287 287 287 287 287 287 288 288 288 288 288 288 288 288 288 288 288 288 287 287 287 286 286 285 284 283 282 280 279 278 277 276 274 273 272 271 270 268 267 267 266 266 265 265 265 265 265 265 265 266 266 266 266 266 266 266 267 267 267 267 267 267 268 267 267 267 267 267 266 266 266 265 265 265 264 264 263 263 262 262 262 261 261 261 261 261
283 284 284 284 285 285 285 285 285 285 286 286 286 286 286 286 286 286 286 286 286 286 286 287 287 287 287 287 287 287 287 287 287 287 287 287 287 286 286 285 285 284 283 282 281 280 279 278 277 276 275 273 272 271 270 269 268 268 267 266 266 266 266 266 266 266 266 267 267 267 267 267 267 267 268 268 268 268 268 269 269 269 269 268 268 268 268 267 267 267 266 266 265 265 264 264 263 263 263 262 262 262 261
283 283 284 284 285 285 285 285 285 285 285 285 285 285 285 285 285 285 285 285 285 285 286 286 286 286 286 286 286 286 286 286 286 286 285 285 285 285 285 284 284 283 283 282 281 280 279 278 277 276 275 274 273 273 272 271 270 269 269 268 268 267 267 267 267 267 267 267 267 268 268 268 268 268 268 269 269 269 269 269 269 269 269 269 269 269 269 269 268 268 268 267 267 266 266 265 265 264 264 264 263 263 262
283 284 284 285 285 285 285 285 285 285 285 285 285 285 285 285 285 285 285 285 285 285 285 285 285 285 285 285 285 285 285 285 284 284 284 284 283 283 283 283 282 282 281 281 280 279 279 278 277 276 276 275 274 273 273 272 271 271 270 270 269 269 269 268 268 268 268 268 268 268 268 269 269 269 269 269 269 269 269 269 270 270 270 270 270 269 269 269 269 269 269 268 268 267 267 267 266 266 265 265 264 264 264
284 285 285 285 285 285 285 285 285 285 285 284 284 284 284 285 285 285 285 285 285 285 285 285 285 285 285 285 285 285 284 284 283 283 282 282 281 281 281 280 280 280 279 279 278 278 277 277 277 276 276 275 274 274 273 273 272 272 271 271 271 270 270 270 269 269 269 269 269 269 269 269 269 269 269 269 269 269 269 270 270 270 270 270 270 270 269 269 269 269 269 269 268 268 268 267 267 267 266 266 265 265 264
285 285 285 285 285 285 285 284 284 284 284 284 284 284 284 285 285 285 285 285 286 285 286 286 285 285 285 285 285 285 284 284 283 282 282 281 280 280 279 279 278 278 278 277 277 276 276 275 275 275 274 274 274 274 273 273 272 272 272 271 271 271 271 271 270 270 270 270 269 269 269 269 269 269 269 269 269 269 269 269 269 270 270 270 270 270 269 269 269 269 269 269 269 268 268 268 268 267 267 266 266 265 265
285 285 285 285 284 284 284 284 284 284 284 284 284 285 285 285 286 286 286 286 286 286 287 286 286 286 286 286 285 285 285 284 284 283 282 281 280 280 279 278 277 277 276 276 275 275 275 274 274 273 273 273 273 273 272 272 272 272 272 271 271 271 271 271 271 271 270 270 270 270 270 270 270 269 269 269 269 269 269 270 270 270 270 270 270 270 270 270 270 269 269 269 269 269 268 268 268 268 267 267 267 266 266
285 285 284 284 284 284 284 284 284 284 284 285 285 285 286 286 287 287 287 287 287 288 288 288 287 287 287 287 286 286 285 285 284 284 283 282 282 281 280 279 278 277 277 276 275 275 274 274 273 273 272 272 272 272 272 272 272 272 271 271 271 271 271 271 271 271 271 271 271 270 270 270 270 270 270 270 270 270 270 270 270 270 270 270 270 270 270 270 270 270 270 269 269 269 269 268 268 268 268 267 267 267 266
285 284 284 284 284 284 284 284 284 284 285 285 286 286 287 287 288 288 288 289 289 289 289 289 289 289 288 288 287 287 287 286 285 285 284 283 283 282 281 280 279 278 278 277 276 276 275 274 274 273 273 272 272 272 272 272 271 271 271 271 271 271 271 271 271 271 271 271 271 271 271 271 270 270 270 270 270 270 270 270 270 270 270 270 270 270 270 270 270 270 270 270 269 269 269 269 268 268 268 268 267 267 267
284 284 284 284 284 284 284 284 285 285 286 286 287 287 288 288 288 289 289 289 289 289 289 289 289 289 289 289 289 288 288 287 287 286 286 285 284 283 282 281 280 280 279 278 277 277 276 276 275 274 274 274 273 273 272 272 272 272 272 272 272 272 272 272 271 271 271 271 271 271 271 271 271 270 270 270 270 270 270 270 270 270 269 269 269 269 269 269 269 269 269 269 269 269 269 269 268 268 268 268 267 267 267
285 285 285 285 285 285 285 285 286 286 286 287 287 287 288 288 288 289 289 289 289 289 289 290 290 290 290 290 289 289 289 289 288 288 287 286 286 285 284 283 282 280 280 279 278 277 277 276 276 276 275 275 275 274 274 274 273 273 273 273 273 273 272 272 272 272 272 272 272 272 271 271 271 271 271 271 271 271 271 270 270 270 270 270 269 269 269 269 269 269 269 269 269 269 269 269 268 268 268 268 267 267 267
285 285 285 285 285 286 286 286 286 286 287 287 287 287 288 288 288 288 289 289 289 289 289 290 290 290 290 290 290 290 290 289 289 289 288 288 287 286 285 284 283 281 280 279 278 278 277 277 276 276 276 276 275 275 275 275 274 274 274 274 273 273 273 273 273 273 273 272 272 272 272 272 272 272 272 272 272 271 271 271 271 271 271 270 270 270 269 269 269 269 269 269 269 268 268 268 268 268 268 268 267 267 267
285 285 286 286 286 286 286 287 287 287 287 287 287 288 288 288 288 288 288 288 289 289 289 289 290 290 290 290 290 290 290 290 290 289 289 288 287 286 286 285 284 283 282 281 279 278 278 277 276 276 276 276 276 275 275 275 275 274 274 274 274 274 273 273 273 273 273 273 273 273 273 273 273 273 273 273 272 272 272 272 272 272 272 271 271 271 270 270 270 269 269 269 269 269 268 268 268 268 268 268 267 267 267
286 286 286 286 286 287 287 287 288 288 288 288 288 288 288 288 287 287 288 288 288 288 289 289 290 290 290 290 290 290 290 290 289 289 289 288 287 287 286 285 285 284 283 282 281 280 279 278 278 277 276 276 276 275 275 275 275 274 274 274 274 274 274 274 273 273 273 273 273 273 273 273 273 273 273 273 273 273 273 273 273 273 272 272 272 272 271 271 271 270 270 270 269 269 269 268 268 268 268 268 267 267 267
286 286 286 287 287 287 288 288 288 288 288 288 288 288 288 288 287 287 287 287 288 288 288 289 289 289 290 290 290 290 290 289 289 289 288 288 287 286 286 286 285 285 285 284 283 282 282 281 280 279 278 277 277 276 276 275 275 275 275 275 274 274 274 274 274 274 274 274 274 274 274 274 274 274 274 274 274 274 273 273 273 273 273 273 273 272 272 272 272 271 271 271 270 270 269 269 269 268 268 268 267 267 267
286 286 287 287 288 288 288 289 289 289 289 289 289 288 288 287 287 287 287 287 287 287 288 288 288 288 289 289 289 289 289 289 289 288 288 287 287 287 286 286 286 285 285 285 284 284 283 282 282 281 280 279 278 278 277 276 276 276 275 275 275 275 275 275 274 274 274 274 274 274 274 274 274 274 274 274 274 274 274 274 274 273 273 273 273 273 273 272 272 272 271 271 271 270 270 270 269 269 268 268 268 267 267
286 287 288 288 288 289 289 290 290 289 289 289 289 288 288 287 287 287 287 287 287 287 287 287 287 287 288 288 288 288 288 288 288 288 288 287 287 287 287 286 286 285 285 285 284 284 284 283 283 282 282 281 280 280 279 278 278 277 277 276 276 276 275 275 275 275 275 275 275 275 275 275 275 274 274 274 274 274 274 274 274 274 273 273 273 273 273 272 272 272 272 272 271 271 271 270 270 270 269 269 268 268 268
287 288 288 289 289 290 290 290 290 290 289 289 289 288 288 287 287 287 286 286 286 286 286 286 286 286 287 287 287 287 287 287 287 287 287 287 287 287 286 286 286 285 285 284 284 284 283 283 283 282 282 282 281 281 280 280 279 279 278 278 277 277 277 276 276 275 275 275 275 275 275 275 275 275 275 274 274 274 274 274 274 274 274 274 273 273 273 273 273 272 272 272 272 271 271 271 271 270 270 270 269 269 268
288 289 289 290 290 291 291 291 291 290 290 289 289 288 288 287 287 286 286 285 285 285 285 286 286 286 286 286 286 286 286 286 286 286 286 286 286 286 286 285 285 285 285 284 284 283 283 283 282 282 282 282 282 281 281 281 281 280 280 280 279 279 278 278 277 277 276 276 276 276 275 275 275 275 275 275 275 274 274 274 274 274 274 274 274 274 274 273 273 273 273 272 272 272 272 271 271 271 270 270 270 269 269
289 289 290 290 291 291 292 292 292 291 291 290 289 289 288 287 286 286 285 285 285 285 285 285 285 286 286 286 286 285 286 285 285 285 285 285 285 285 285 285 285 284 284 284 284 284 283 283 282 282 282 282 282 282 282 282 281 281 281 281 281 280 280 280 279 279 278 278 278 277 277 277 276 276 276 276 276 275 275 275 275 275 275 274 274 274 274 274 274 274 273 273 273 272 272 272 271 271 271 271 270 270 270
289 290 290 291 292 292 293 293 293 292 292 291 290 289 288 287 286 286 285 285 285 285 285 285 285 286 286 286 285 285 285 285 284 284 284 284 284 284 284 284 284 284 284 284 284 283 283 283 283 282 282 282 282 282 282 282 282 282 282 282 282 281 281 281 281 281 280 280 280 279 279 279 278 278 278 277 277 277 277 276 276 276 276 276 275 275 275 275 275 274 274 274 273 273 273 272 272 272 271 271 271 271 270
289 290 291 292 292 293 293 294 294 293 293 292 291 290 289 288 287 286 286 285 285 285 286 286 286 286 286 286 285 285 285 285 284 284 283 283 283 282 283 283 283 283 283 283 283 283 283 283 283 283 282 282 282 282 282 282 282 282 282 282 282 282 282 282 282 282 282 282 282 281 281 281 280 280 280 279 279 279 279 278 278 278 277 277 277 277 276 276 276 275 275 275 274 274 274 273 273 273 272 272 272 271 271
290 291 292 292 293 294 294 294 294 294 293 292 291 290 289 288 287 287 286 286 286 286 286 286 286 286 286 286 286 285 285 285 284 284 283 283 282 282 282 282 282 282 282 282 282 282 282 282 282 282 282 282 282 282 282 282 282 282 282 282 282 282 282 282 282 282 282 283 282 282 282 282 282 282 281 281 281 281 280 280 280 279 279 279 278 278 278 277 277 277 276 276 276 275 275 274 274 274 273 273 273 272 272
290 291 292 293 294 294 295 295 295 295 294 293 292 291 290 289 288 287 287 286 286 286 286 286 286 287 287 287 286 286 286 286 285 285 284 283 283 282 282 282 281 281 281 281 281 281 281 281 281 282 282 282 282 282 282 282 282 282 282 282 282 282 282 282 282 282 282 282 282 282 282 282 282 282 282 282 282 282 282 281 281 281 281 280 280 280 279 279 278 278 278 277 277 276 276 276 275 275 275 274 274 273 273
290 291 292 293 294 295 295 296 296 295 295 294 293 292 291 290 289 288 287 287 287 287 287 287 287 287 287 288 288 288 287 287 286 286 285 284 284 283 282 282 281 281 281 281 281 281 281 281 281 281 281 282 282 282 282 282 282 282 282 282 282 282 282 282 282 282 282 282 282 282 282 282 282 282 282 282 282 282 282 282 282 282 281 281 281 281 280 280 280 279 279 278 278 278 277 277 277 276 276 275 275 274 274
290 291 292 293 294 295 296 296 297 297 296 295 294 293 292 291 290 289 288 288 287 287 287 288 288 288 288 289 289 289 288 288 287 287 286 286 285 284 283 283 282 282 281 281 281 281 281 281 281 281 282 282 282 282 282 282 282 281 281 281 281 281 281 281 281 281 281 281 281 281 281 281 281 281 281 281 281 281 281 282 282 282 282 281 281 281 281 281 281 280 280 280 279 279 279 278 278 277 277 276 276 275 275
290 291 292 294 295 296 296 297 297 297 297 296 295 294 293 292 291 290 289 289 288 288 288 288 289 289 289 289 290 290 289 289 289 288 288 287 286 286 285 284 284 283 283 282 282 282 282 282 282 282 282 282 282 282 282 282 282 281 281 281 281 281 281 281 281 281 281 280 280 280 280 280 280 281 281 281 281 281 281 281 281 281 281 281 281 281 281 281 281 281 281 280 280 280 280 279 279 278 278 277 277 276 276
291 292 293 294 295 296 297 297 298 298 297 296 295 295 294 293 292 291 290 290 289 289 289 289 289 290 290 290 290 291 291 290 290 290 289 289 288 288 287 286 286 285 285 284 284 284 283 283 283 283 283 283 282 282 282 282 282 281 281 281 281 281 281 281 281 280 280 280 280 280 280 280 280 280 280 280 280 281 281 281 281 281 281 281 281 281 281 281 281 281 281 281 281 281 280 280 280 279 279 279 278 278 277
291 292 293 294 295 296 296 297 297 297 297 296 296 295 294 293 293 292 291 291 290 290 290 290 290 291 291 291 291 291 291 291 291 291 291 290 290 289 289 289 288 288 287 287 286 286 285 285 284 284 284 283 283 283 282 282 282 281 281 281 281 281 281 281 280 280 280 280 280 280 280 280 280 280 280 280 280 281 281 281 281 281 281 281 281 281 281 281 281 281 281 281 281 281 281 280 280 280 280 279 279 279 278
292 292 293 294 294 295 296 296 296 297 296 296 296 295 295 294 293 293 292 291 291 291 291 291 291 292 292 292 292 292 292 292 292 292 292 291 291 291 291 290 290 289 289 288 288 287 287 286 286 285 285 284 284 283 283 282 282 281 281 281 281 281 281 281 280 280 280 280 280 280 280 280 280 280 281 281 281 281 281 281 281 281 281 282 282 282 282 282 282 282 282 282 282 281 281 281 281 281 280 280 280 279 279
291 291 292 292 293 294 294 295 296 296 296 296 296 296 295 294 294 293 292 292 292 292 292 292 292 292 292 293 293 293 293 293 292 292 292 292 292 292 291 291 291 290 289 289 288 288 287 287 286 285 285 284 284 283 282 282 282 281 281 281 281 281 280 280 280 280 280 280 280 280 280 280 280 280 281 281 281 281 281 281 281 281 281 281 281 282 282 282 282 282 282 282 282 282 281 281 281 281 281 280 280 280 280
290 290 290 291 291 292 293 294 295 295 295 295 295 295 295 294 294 293 293 292 292 292 292 292 292 293 293 293 293 293 293 293 293 292 292 292 292 292 291 291 290 290 289 289 288 287 287 286 285 285 284 283 283 282 282 281 281 281 281 281 281 280 280 280 280 280 280 280 280 280 280 280 280 280 280 280 280 280 280 280 280 280 280 281 281 281 281 281 281 281 281 281 281 281 281 281 281 281 281 280 280 280 280
288 288 289 289 290 291 292 293 293 294 294 295 295 295 294 294 293 293 293 292 292 292 292 292 292 293 293 293 293 293 293 292 292 292 292 291 291 291 290 290 290 289 289 288 287 287 286 285 285 284 283 283 282 282 281 281 281 281 281 281 281 281 280 280 280 280 280 280 280 280 280 280 280 280 280 279 279 279 279 280 280 280 280 280 280 280 280 280 280 280 280 280 280 280 280 280 280 280 280 280 280 279 279
287 287 288 288 289 290 290 291 292 293 293 294 294 294 294 293 293 292 292 292 292 292 292 292 292 292 292 292 292 292 292 291 291 291 291 290 290 289 289 288 288 288 287 287 286 285 285 284 284 283 283 282 282 282 281 281 281 281 281 281 281 281 281 281 281 280 280 280 280 280 280 279 279 279 279 279 279 279 279 279 280 280 280 280 280 280 280 280 280 279 279 279 279 279 279 279 279 279 279 279 279 278 278
287 287 287 288 288 289 290 290 291 292 292 292 293 293 293 292 292 292 292 291 291 291 291 291 291 291 291 291 291 291 290 290 290 290 289 289 288 288 287 287 286 286 286 285 285 284 284 283 283 283 282 282 282 281 281 281 281 281 281 281 281 281 281 281 280 280 280 280 280 280 280 279 279 279 279 279 279 279 280 280 280 280 280 280 280 280 280 280 280 279 279 279 279 279 279 279 278 278 278 278 278 278 278
287 287 287 288 288 289 290 290 291 291 292 292 292 292 292 292 291 291 291 291 291 291 291 291 291 290 290 290 290 289 289 289 289 288 288 287 287 286 286 285 285 284 284 284 284 283 283 283 282 282 282 282 281 281 281 281 281 281 281 281 281 281 280 280 280 280 280 280 280 280 280 280 280 280 280 280 280 280 280 280 281 281 281 280 280 280 280 280 280 280 280 279 279 279 279 279 278 278 278 278 278 278 278
286 287 287 288 288 289 290 290 291 291 292 292 292 292 292 292 291 291 291 291 291 290 290 290 290 290 289 289 288 288 288 287 287 287 286 286 286 285 285 284 284 284 283 283 283 283 282 282 282 282 282 282 281 281 281 281 281 281 281 281 281 281 280 280 280 280 280 280 280 280 280 280 281 281 281 281 281 281 281 281 282 281 281 281 281 281 281 280 280 280 280 280 279 279 279 279 279 279 278 278 278 278 278
286 286 287 288 288 289 290 290 291 291 291 292 292 292 292 292 291 291 291 290 290 290 290 289 289 289 289 288 287 287 287 286 286 286 285 285 285 284 284 284 284 283 283 283 283 283 283 283 282 282 282 282 282 282 282 282 282 282 281 281 281 281 281 281 281 281 281 281 281 281 281 282 282 282 282 282 282 282 282 282 282 282 282 282 282 282 281 281 281 280 280 280 280 280 279 279 279 279 279 279 278 278 278
285 286 287 287 288 289 289 290 290 291 291 291 292 292 292 292 291 291 291 290 290 289 289 289 288 288 288 288 287 287 287 286 286 285 285 285 285 284 284 284 284 284 284 284 284 284 283 283 283 283 283 283 283 283 283 283 283 283 283 283 282 282 282 282 282 282 282 282 283 283 283 283 283 283 283 283 283 283 283 283 283 283 282 282 282 282 282 281 281 281 280 280 280 280 279 279 279 279 279 279 279 279 279
285 286 287 287 288 288 289 290 290 290 291 291 291 291 291 291 291 291 291 290 290 289 289 288 288 287 287 287 287 287 287 286 286 286 285 285 285 285 285 285 284 284 284 284 284 284 284 284 284 284 284 284 284 284 284 284 284 284 284 284 284 284 284 284 284 284 284 284 284 284 284 284 284 284 284 284 284 284 284 284 283 283 283 283 282 282 282 281 281 281 280 280 280 280 279 279 279 279 279 279 279 279 279
285 286 287 287 288 288 289 289 290 290 291 291 291 291 291 291 291 291 290 290 289 289 289 288 288 287 287 287 287 286 286 286 286 286 286 286 286 286 285 285 285 285 285 285 285 285 285 285 285 285 285 285 285 285 285 285 285 285 285 285 285 285 285 285 285 285 285 284 284 284 285 285 285 285 285 285 284 284 284 284 284 284 284 283 283 283 282 282 282 281 281 280 280 280 279 279 279 279 279 279 279 279 279
286 286 287 287 288 288 289 289 290 290 290 290 291 291 291 291 291 291 290 290 289 289 289 288 288 287 287 286 286 286 286 286 286 286 286 286 286 286 286 286 286 286 286 286 286 286 286 286 286 286 286 286 286 286 286 285 285 285 285 285 285 285 285 285 285 285 285 285 285 285 285 285 285 285 285 285 285 285 285 285 285 284 284 284 284 284 283 283 282 282 282 281 281 280 280 280 279 279 279 279 279 279 279
285 286 287 287 288 289 289 290 290 290 291 291 291 291 291 290 290 290 290 290 289 289 288 288 288 287 287 287 286 286 286 286 286 287 287 287 287 287 287 287 287 287 287 287 287 287 287 287 287 287 286 287 286 286 286 286 286 286 285 285 285 285 285 285 285 285 285 285 285 285 285 285 285 285 285 285 285 285 285 285 285 285 285 285 284 284 284 284 283 283 283 282 282 281 281 281 280 280 280 279 279 279 279
285 286 287 288 288 289 290 290 290 291 291 291 291 291 291 290 290 290 290 290 289 289 288 288 288 288 287 287 287 286 286 287 287 287 287 287 287 288 288 288 288 288 288 288 287 287 287 287 287 287 287 287 287 287 287 286 286 286 286 286 285 285 285 285 285 285 285 285 285 285 285 285 285 285 285 285 285 285 285 285 285 285 285 285 284 284 284 284 284 283 283 283 282 282 282 281 281 281 280 280 279 279 279
285 286 287 288 288 289 290 290 291 291 292 292 291 291 291 291 290 290 290 289 289 289 288 288 288 288 288 288 287 287 287 287 287 287 287 288 288 288 288 288 288 288 288 288 287 287 287 287 287 287 287 287 287 287 286 286 286 286 286 286 286 286 286 285 285 285 285 285 285 285 285 285 285 285 285 285 285 285 285 285 285 284 284 284 284 283 283 283 283 283 283 282 282 282 282 281 281 281 280 280 280 279 279
285 286 287 288 288 289 290 290 291 291 292 292 292 291 291 291 290 290 290 289 289 289 288 288 288 288 288 288 288 288 288 288 288 288 288 288 288 288 288 288 288 288 288 288 287 287 287 287 286 286 286 286 286 286 286 286 286 286 286 286 286 286 286 286 286 286 286 286 286 286 286 286 285 285 285 285 285 285 284 284 284 284 283 283 283 282 282 282 282 281 281 281 281 281 281 281 281 280 280 280 280 279 279
285 286 287 288 288 289 289 290 291 291 291 291 291 291 291 291 291 290 290 290 289 289 289 289 289 289 289 289 289 289 289 289 289 289 288 288 288 288 288 288 288 288 288 288 287 287 287 287 286 286 286 286 286 286 286 286 286 286 286 286 286 286 286 286 287 287 286 286 286 286 286 286 286 285 285 285 285 284 284 284 283 283 283 283 282 282 282 281 281 281 280 280 280 280 280 280 280 280 280 280 280 279 279
285 286 287 288 288 289 289 290 290 291 291 291 291 291 291 291 291 291 290 290 290 289 289 289 289 289 289 289 289 289 290 289 289 289 288 288 288 288 288 287 287 287 287 287 287 287 287 287 287 287 286 286 286 286 286 286 286 286 286 286 286 286 287 287 287 287 287 286 286 286 286 286 286 286 285 285 285 284 284 284 283 283 283 283 282 282 282 282 281 281 281 281 280 280 280 280 280 280 280 280 280 280 279
286 287 287 288 288 289 289 290 290 290 290 291 291 291 291 291 291 291 291 290 290 290 290 290 289 289 289 289 289 289 289 289 289 289 288 288 288 287 287 287 287 287 287 287 287 287 287 288 288 287 287 287 286 286 286 286 286 286 287 287 287 287 287 287 287 287 287 287 287 286 286 286 286 286 286 286 285 285 285 284 284 284 283 283 283 283 283 282 282 282 282 281 281 281 281 281 281 280 280 280 280 280 280
286 287 288 288 289 289 290 290 290 290 290 291 291 291 291 291 291 291 291 291 291 290 290 290 290 290 289 289 289 289 289 288 288 288 288 287 287 287 287 287 287 287 287 287 287 287 287 288 288 288 288 288 287 287 287 287 287 287 287 287 287 287 287 287 287 287 287 287 287 287 287 287 287 287 287 287 287 286 286 286 285 285 284 284 284 284 283 283 283 283 282 282 282 282 282 282 281 281 281 281 281 281 280
286 287 288 288 289 289 290 290 290 291 291 291 291 291 291 291 291 291 291 291 291 290 290 290 290 290 289 289 289 289 288 288 288 287 287 287 287 287 286 286 286 287 287 288 287 287 288 288 288 288 288 288 288 288 289 289 288 288 288 288 288 288 288 288 288 288 288 288 288 288 289 289 289 289 289 288 288 288 288 287 287 287 286 286 285 285 285 284 284 284 284 283 283 283 283 282 282 282 282 281 281 281 281
286 287 287 288 289 289 290 290 291 291 291 291 291 291 291 291 291 291 290 290 290 290 290 290 290 289 289 289 289 289 288 288 288 287 287 287 287 287 286 286 286 286 287 287 287 288 288 288 288 288 288 288 289 289 289 289 289 289 289 289 289 289 289 289 289 289 289 289 289 289 289 289 289 289 289 289 289 289 289 289 289 288 288 288 287 287 287 286 286 285 285 285 284 284 284 284 283 283 283 282 282 282 281
285 286 287 288 289 289 290 290 291 291 291 291 291 291 291 290 290 290 290 290 290 290 290 289 289 289 289 288 288 288 288 288 288 288 288 288 288 287 287 287 287 287 287 287 287 287 287 288 288 287 287 288 288 288 288 288 289 289 289 289 289 289 290 290 290 290 290 289 289 290 289 289 289 289 289 289 289 289 289 289 289 289 289 289 289 288 288 288 288 287 287 286 286 286 285 285 285 284 284 284 283 283 282
285 286 287 287 288 289 289 290 290 290 291 291 291 290 290 290 290 290 290 290 290 290 289 289 289 288 288 288 287 287 287 288 288 288 288 288 288 288 288 287 287 287 287 287 287 287 287 287 287 287 287 287 287 287 287 287 287 288 288 288 288 288 289 289 289 289 289 289 289 289 289 289 289 289 289 289 289 289 289 289 289 289 289 289 289 289 289 289 288 288 288 288 288 287 287 287 286 286 286 285 285 284 284
285 286 286 287 288 289 289 290 290 290 290 290 290 290 290 290 290 290 289 289 289 289 289 289 288 288 288 288 287 287 287 287 287 287 288 288 288 288 288 288 288 287 288 287 287 288 288 288 288 288 288 288 287 287 287 287 287 287 287 287 287 287 287 288 288 288 288 288 288 288 288 288 288 288 288 288 288 288 288 288 288 288 288 288 288 288 288 288 288 288 288 288 288 288 288 288 287 287 287 286 286 285 285
285 286 287 287 288 289 289 289 289 289 289 289 289 289 289 289 289 289 289 289 288 288 288 288 288 287 287 287 287 287 287 286 287 287 287 288 288 288 288 288 288 288 288 288 288 288 288 288 288 288 288 288 288 288 288 288 287 287 287 287 287 287 287 287 287 287 287 287 287 287 287 287 287 287 287 287 287 287 287 287 287 287 287 287 287 287 287 287 287 287 287 287 287 288 288 288 288 288 287 287 287 286 286
285 286 287 287 288 288 289 289 289 289 288 288 288 288 288 288 288 288 288 287 287 287 287 287 287 287 286 286 287 287 286 286 286 286 287 287 288 288 288 289 289 289 289 289 288 288 288 288 288 288 288 288 288 288 288 288 288 287 287 287 287 287 287 287 286 286 286 287 287 287 287 287 287 286 286 286 286 286 286 286 286 286 286 286 286 286 286 286 286 286 286 286 287 287 287 287 287 287 287 287 287 287 287
285 286 287 287 288 288 288 288 288 288 288 288 288 287 287 287 287 287 287 286 286 286 286 286 286 286 286 286 286 286 286 286 286 286 286 286 287 288 288 289 289 289 289 289 289 289 289 289 288 288 288 288 288 288 288 288 288 288 288 288 288 288 287 287 287 287 286 286 286 286 286 286 286 286 286 286 286 286 286 285 285 285 285 285 285 285 285 285 285 285 285 286 286 286 286 286 286 286 286 287 287 287 287
286 286 287 287 287 288 287 287 287 287 287 287 286 286 286 286 286 286 286 286 286 286 286 286 286 286 286 286 286 286 286 286 286 286 286 287 287 287 288 289 289 289 290 290 290 290 290 290 290 289 289 289 288 288 288 288 288 288 288 288 288 288 288 288 287 287 287 287 286 286 286 286 285 285 285 285 285 285 285 285 285 285 285 285 285 285 285 285 285 285 285 285 285 285 286 286 286 286 286 286 286 286 286
286 286 286 287 287 287 286 286 286 286 286 286 286 286 285 285 285 285 286 286 286 286 286 286 286 286 286 286 286 286 286 286 286 287 287 288 288 288 288 288 289 289 290 290 290 290 291 291 291 291 290 290 289 289 289 289 289 289 289 289 289 288 288 288 288 288 287 287 287 286 286 286 285 285 285 285 285 285 285 285 285 285 285 285 284 284 284 284 284 284 285 285 285 285 285 285 285 285 285 285 285 285 284
285 285 286 286 286 286 286 286 286 286 286 286 285 285 285 285 285 285 286 286 286 286 286 286 286 286 286 286 286 286 286 287 287 288 288 289 289 289 289 289 290 290 290 290 291 291 291 291 291 291 291 291 291 290 290 290 290 290 289 289 289 289 289 289 288 288 288 287 287 287 286 286 286 286 285 285 285 285 285 285 285 285 285 285 284 284 284 284 284 285 285 285 285 285 285 285 285 285 284 284 284 284 284